« Back
NWS Peachtree City, Ga » Text Product » GA Regional Weather Roundup


Printer-friendly Version
Current Version              Previous Versions:   1  2  3  4  5  6  7  8  9  

Regional Weather Roundup

739
ASUS42 KFFC 191303
RWRGA
WEATHER ROUNDUP FOR GEORGIA
NATIONAL WEATHER SERVICE PEACHTREE CITY GA
900 AM EDT SUN APR 19 2015

NOTE: "FAIR" INDICATES FEW OR NO CLOUDS BELOW 12,000 FEET WITH NO
SIGNIFICANT WEATHER AND/OR OBSTRUCTIONS TO VISIBILITY.

* = USE WITH CAUTION. THE STATIONS MARKED WITH AN ASTERISK MAY NOT
REPORT WEATHER SUCH AS PRECIPITATION, FOG, OR THUNDER AND ARE NOT
QUALITY CONTROLLED BY NWS.

THE REMARK "TC" DENOTES TEMPERATURE READING IN DEGREES CELSIUS.

GAZ001>058-191400-
NORTH GEORGIA

CITY           SKY/WX    TMP DP  RH WIND       PRES   REMARKS
ATLANTA        FOG       68  65  90 SE7       29.84F VSB 3/4
ATHENS         CLOUDY    67  66  97 VRB3      29.87F FOG
CHAMBLEE       LGT RAIN  66  66 100 SE12      29.84F FOG
PEACHTREE CITY PTSUNNY   68  67  96 S6        29.84F
ROME           CLOUDY    68  66  93 SE7       29.78F
WEST ATLANTA   CLOUDY    68  66  93 S8        29.83F
GAINESVILLE    CLOUDY    65  64  97 SE7       29.88F
CARTERSVILLE   PTSUNNY   68  65  90 SE8       29.80F


CITY           SKY/WX    TMP DP  RH WIND       PRES   REMARKS
DALTON*        CLOUDY    64  64 100 SE6       29.80S
LAWRENCEVILLE* CLOUDY    66  61  82 CALM      29.86F FOG
MARIETTA       CLOUDY    67  67 100 SE9       29.84F FOG
KENNESAW*      PTSUNNY   66  64  94 S8        29.84F
BLAIRSVILLE*   RAIN      64  58  81 E3        29.87S
$$

GAZ059>098-102>109-191400-
CENTRAL GEORGIA

CITY           SKY/WX    TMP DP  RH WIND       PRES   REMARKS
AUGUSTA-BUSH   LGT RAIN  69  68  96 SE8       29.89F FOG
AUGUSTA-DANIEL LGT RAIN  69  67  93 SE7       29.91F VSB 3/4
COLUMBUS       LGT RAIN  68  67  96 E6        29.81F FOG
MACON          CLOUDY    70  68  93 CALM      29.84S FOG
ROBINS AFB     CLOUDY    70  69  98 NW2       29.84S


CITY           SKY/WX    TMP DP  RH WIND       PRES   REMARKS
LAGRANGE*      RAIN      72  72  98 SE5       29.81F
SYLVANIA*      DRIZZLE   69  69 100 CALM      29.92F
MILLEDGEVILLE* CLOUDY    68  68 100 CALM      29.86F FOG
$$

GAZ099>101-110>166-191400-
SOUTH GEORGIA

CITY           SKY/WX    TMP DP  RH WIND       PRES   REMARKS
SAVANNAH       RAIN      70  68  93 SE5       29.93F FOG
VALDOSTA       CLOUDY    73  72  96 S9        29.88R
ALMA           CLOUDY    71  69  93 SE7       29.86F
ST SIMONS      CLOUDY    72  71  97 SE7       29.90F FOG
FT STEWART     CLOUDY    70  68  94 E6        29.88F
ALBANY         CLOUDY    73  70  90 S7        29.87R
HUNTER AFB     RAIN      70  70 100 S2        29.91F FOG
MOODY AFB      CLOUDY    73  72  94 S15       29.87R
BRUNSWICK      CLOUDY    72  70  94 E3        29.91F


CITY           SKY/WX    TMP DP  RH WIND       PRES   REMARKS
BAINBRIDGE*    MOSUNNY   79  77  94 SE10      29.83F
MOULTRIE*      CLOUDY    72 N/A N/A S5        29.89R HAZE
VIDALIA*       LGT RAIN  70  70 100 SE7       29.87F
WAYCROSS*      CLOUDY    74  74  98 SE8       29.87
DOUGLAS*       PTSUNNY   73  70  88 SE6       29.87S
$$



USA.gov is the U.S. government's official web portal to all federal, state and local government web resources and services.